Time,TemperatureF,DewpointF,PressureIn,WindDirection,WindDirectionDegrees,WindSpeedMPH,WindSpeedGustMPH,Humidity,HourlyPrecipIn,Conditions,Clouds,dailyrainin,SoftwareType,DateUTC
2013-09-02 00:04:00,64.4,61.3,-100.00,North,355,1.0,4.0,90,0.00,,,-99.99,FreeWX-Wi 1.01,2013-09-02 07:04:00,
2013-09-02 00:14:00,64.2,61.2,29.79,NNW,334,1.0,5.4,90,0.00,,,-99.99,FreeWX-Wi 1.01,2013-09-02 07:14:00,
2013-09-02 00:24:00,64.2,61.2,-100.00,NW,325,1.0,5.4,90,0.00,,,-99.99,FreeWX-Wi 1.01,2013-09-02 07:24:00,
2013-09-02 00:34:00,64.2,61.5,29.79,NNW,340,1.0,5.4,91,0.00,,,-99.99,FreeWX-Wi 1.01,2013-09-02 07:34:00,
2013-09-02 00:44:00,64.2,61.5,29.79,NNE,23,1.0,2.7,91,0.00,,,-99.99,FreeWX-Wi 1.01,2013-09-02 07:44:00,
2013-09-02 00:54:00,64.2,61.5,29.79,North,-999,0.0,3.6,91,0.00,,,-99.99,FreeWX-Wi 1.01,2013-09-02 07:54:00,
2013-09-02 01:04:00,64.2,61.5,29.79,North,-999,0.0,5.4,91,0.00,,,-99.99,FreeWX-Wi 1.01,2013-09-02 08:04:00,
2013-09-02 01:14:00,64.2,61.5,29.79,North,-999,0.0,3.1,91,0.00,,,-99.99,FreeWX-Wi 1.01,2013-09-02 08:14:00,
2013-09-02 01:24:00,64.2,61.5,29.79,ENE,75,1.0,6.7,91,0.00,,,-99.99,FreeWX-Wi 1.01,2013-09-02 08:24:00,
2013-09-02 01:34:00,64.0,61.7,29.79,North,-999,0.0,5.8,92,0.00,,,-99.99,FreeWX-Wi 1.01,2013-09-02 08:34:00,
2013-09-02 01:44:00,63.9,61.5,29.79,NE,35,1.0,5.4,92,0.00,,,-99.99,FreeWX-Wi 1.01,2013-09-02 08:44:00,
2013-09-02 01:54:00,63.9,61.5,29.79,NE,53,1.0,5.8,92,0.00,,,-99.99,FreeWX-Wi 1.01,2013-09-02 08:54:00,
2013-09-02 02:04:00,63.7,61.3,-100.00,North,9,2.0,5.4,92,0.00,,,-99.99,FreeWX-Wi 1.01,2013-09-02 09:04:00,
2013-09-02 02:14:00,63.7,61.7,29.79,North,349,1.0,5.4,93,0.00,,,-99.99,FreeWX-Wi 1.01,2013-09-02 09:14:00,
2013-09-02 02:24:00,63.7,61.7,29.79,NNE,19,1.0,5.4,93,0.00,,,-99.99,FreeWX-Wi 1.01,2013-09-02 09:24:00,
2013-09-02 02:34:00,63.7,61.7,29.79,NE,53,1.0,3.6,93,0.00,,,-99.99,FreeWX-Wi 1.01,2013-09-02 09:34:00,
2013-09-02 02:44:00,63.7,61.7,29.79,ENE,62,1.0,4.9,93,0.00,,,-99.99,FreeWX-Wi 1.01,2013-09-02 09:44:00,
2013-09-02 02:54:00,63.7,61.9,29.79,ENE,57,1.0,5.8,94,0.00,,,-99.99,FreeWX-Wi 1.01,2013-09-02 09:54:00,
2013-09-02 03:04:00,63.7,61.9,29.79,ENE,64,1.0,4.0,94,0.00,,,-99.99,FreeWX-Wi 1.01,2013-09-02 10:04:00,
2013-09-02 03:14:00,63.9,62.1,29.79,North,-999,0.0,2.7,94,0.00,,,-99.99,FreeWX-Wi 1.01,2013-09-02 10:14:00,
2013-09-02 03:24:00,63.9,62.1,29.79,North,-999,0.0,0.0,94,0.00,,,-99.99,FreeWX-Wi 1.01,2013-09-02 10:24:00,
2013-09-02 03:34:00,64.0,62.2,29.79,North,-999,0.0,2.2,94,0.00,,,-99.99,FreeWX-Wi 1.01,2013-09-02 10:34:00,
2013-09-02 03:44:00,64.2,62.4,29.79,North,-999,0.0,5.4,94,0.00,,,-99.99,FreeWX-Wi 1.01,2013-09-02 10:44:00,
2013-09-02 03:54:00,64.2,62.4,29.79,North,-999,0.0,4.0,94,0.00,,,-99.99,FreeWX-Wi 1.01,2013-09-02 10:54:00,
2013-09-02 04:04:00,64.0,62.2,29.79,ENE,63,1.0,5.8,94,0.00,,,-99.99,FreeWX-Wi 1.01,2013-09-02 11:04:00,
2013-09-02 04:14:00,64.0,62.2,29.79,ENE,60,1.0,4.9,94,0.00,,,-99.99,FreeWX-Wi 1.01,2013-09-02 11:14:00,
2013-09-02 04:24:00,64.0,62.2,29.79,ENE,64,1.0,5.4,94,0.00,,,-99.99,FreeWX-Wi 1.01,2013-09-02 11:24:00,
2013-09-02 04:34:00,64.2,62.4,29.79,NE,47,1.0,5.4,94,0.00,,,-99.99,FreeWX-Wi 1.01,2013-09-02 11:34:00,
2013-09-02 04:44:00,64.2,62.4,29.79,NNE,27,1.0,4.0,94,0.00,,,-99.99,FreeWX-Wi 1.01,2013-09-02 11:44:00,
2013-09-02 04:54:00,64.2,62.4,29.79,NNE,18,1.0,4.9,94,0.00,,,-99.99,FreeWX-Wi 1.01,2013-09-02 11:54:00,
2013-09-02 05:09:00,64.2,62.4,29.79,NE,40,1.0,4.0,94,0.00,,,-99.99,FreeWX-Wi 1.01,2013-09-02 12:09:00,
2013-09-02 05:19:00,64.0,62.2,29.79,NE,52,1.0,4.0,94,0.00,,,-99.99,FreeWX-Wi 1.01,2013-09-02 12:19:00,
2013-09-02 05:29:00,64.2,62.4,29.79,North,-999,0.0,3.1,94,0.00,,,-99.99,FreeWX-Wi 1.01,2013-09-02 12:29:00,
2013-09-02 05:39:00,64.2,62.4,29.79,North,-999,0.0,0.0,94,0.00,,,-99.99,FreeWX-Wi 1.01,2013-09-02 12:39:00,
2013-09-02 05:49:00,64.4,62.2,29.79,North,-999,0.0,5.4,93,0.00,,,-99.99,FreeWX-Wi 1.01,2013-09-02 12:49:00,
2013-09-02 05:59:00,64.4,62.2,29.79,North,-999,0.0,4.0,93,0.00,,,-99.99,FreeWX-Wi 1.01,2013-09-02 12:59:00,
2013-09-02 06:09:00,64.4,62.2,29.79,NNW,344,1.0,5.8,93,0.00,,,-99.99,FreeWX-Wi 1.01,2013-09-02 13:09:00,
2013-09-02 06:19:00,64.4,62.2,29.79,North,-999,0.0,4.0,93,0.00,,,-99.99,FreeWX-Wi 1.01,2013-09-02 13:19:00,
2013-09-02 06:29:00,64.4,62.2,29.79,North,-999,0.0,5.4,93,0.00,,,-99.99,FreeWX-Wi 1.01,2013-09-02 13:29:00,
2013-09-02 06:39:00,64.4,62.2,29.79,North,-999,0.0,5.4,93,0.00,,,-99.99,FreeWX-Wi 1.01,2013-09-02 13:39:00,
2013-09-02 06:49:00,64.4,62.2,29.79,North,-999,0.0,4.9,93,0.00,,,-99.99,FreeWX-Wi 1.01,2013-09-02 13:49:00,
2013-09-02 06:59:00,64.6,62.4,29.79,NE,55,1.0,4.5,93,0.00,,,-99.99,FreeWX-Wi 1.01,2013-09-02 13:59:00,
2013-09-02 07:09:00,64.6,62.4,29.82,ENE,57,1.0,4.9,93,0.00,,,-99.99,FreeWX-Wi 1.01,2013-09-02 14:09:00,
2013-09-02 07:19:00,64.8,62.6,29.82,NNE,33,1.0,5.8,93,0.00,,,-99.99,FreeWX-Wi 1.01,2013-09-02 14:19:00,
2013-09-02 07:29:00,64.8,62.6,29.82,North,10,1.0,4.9,93,0.00,,,-99.99,FreeWX-Wi 1.01,2013-09-02 14:29:00,
2013-09-02 07:39:00,64.9,62.8,29.82,North,359,1.0,4.0,93,0.00,,,-99.99,FreeWX-Wi 1.01,2013-09-02 14:39:00,
2013-09-02 07:49:00,65.1,63.0,29.82,North,3,1.0,4.0,93,0.00,,,-99.99,FreeWX-Wi 1.01,2013-09-02 14:49:00,
2013-09-02 07:59:00,65.1,63.0,29.82,North,-999,0.0,3.6,93,0.00,,,-99.99,FreeWX-Wi 1.01,2013-09-02 14:59:00,
2013-09-02 08:09:00,65.5,63.3,29.82,North,-999,0.0,3.6,93,0.00,,,-99.99,FreeWX-Wi 1.01,2013-09-02 15:09:00,
2013-09-02 08:19:00,65.7,63.3,29.82,North,-999,0.0,5.8,92,0.00,,,-99.99,FreeWX-Wi 1.01,2013-09-02 15:19:00,
2013-09-02 08:29:00,65.8,63.5,29.82,North,-999,0.0,3.6,92,0.00,,,-99.99,FreeWX-Wi 1.01,2013-09-02 15:29:00,
2013-09-02 08:39:00,66.0,63.7,29.82,North,-999,0.0,3.6,92,0.00,,,-99.99,FreeWX-Wi 1.01,2013-09-02 15:39:00,
2013-09-02 08:49:00,66.2,63.5,29.82,North,-999,0.0,4.5,91,0.00,,,-99.99,FreeWX-Wi 1.01,2013-09-02 15:49:00,
2013-09-02 08:59:00,66.4,63.0,29.82,North,-999,0.0,5.8,89,0.00,,,-99.99,FreeWX-Wi 1.01,2013-09-02 15:59:00,
2013-09-02 09:09:00,66.9,63.5,29.82,North,-999,0.0,3.1,89,0.00,,,-99.99,FreeWX-Wi 1.01,2013-09-02 16:09:00,
2013-09-02 09:19:00,67.1,62.8,29.85,North,6,1.0,5.4,86,0.00,,,-99.99,FreeWX-Wi 1.01,2013-09-02 16:19:00,
2013-09-02 09:29:00,67.3,61.9,29.85,NNW,338,1.0,6.3,83,0.00,,,-99.99,FreeWX-Wi 1.01,2013-09-02 16:29:00,
2013-09-02 09:39:00,67.6,62.2,29.85,NNW,327,2.0,5.4,83,0.00,,,-99.99,FreeWX-Wi 1.01,2013-09-02 16:39:00,
2013-09-02 09:49:00,68.0,61.9,29.85,NNW,333,2.0,6.7,81,0.00,,,-99.99,FreeWX-Wi 1.01,2013-09-02 16:49:00,
2013-09-02 09:59:00,68.0,61.5,29.85,North,349,2.0,4.9,80,0.00,,,-99.99,FreeWX-Wi 1.01,2013-09-02 16:59:00,
2013-09-02 10:09:00,68.4,61.5,29.85,North,350,2.0,6.3,79,0.00,,,-99.99,FreeWX-Wi 1.01,2013-09-02 17:09:00,
2013-09-02 10:19:00,68.4,61.2,29.85,North,350,2.0,5.8,78,0.00,,,-99.99,FreeWX-Wi 1.01,2013-09-02 17:19:00,
2013-09-02 10:29:00,68.5,61.0,29.85,NNW,341,2.0,6.3,77,0.00,,,-99.99,FreeWX-Wi 1.01,2013-09-02 17:29:00,
2013-09-02 10:39:00,69.3,60.6,29.85,NNW,331,2.0,6.3,74,0.00,,,-99.99,FreeWX-Wi 1.01,2013-09-02 17:39:00,
2013-09-02 10:49:00,70.0,60.4,29.85,NNW,328,3.0,6.3,72,0.00,,,-99.99,FreeWX-Wi 1.01,2013-09-02 17:49:00,
2013-09-02 10:59:00,71.1,60.4,29.85,NNW,341,3.0,6.3,69,0.00,,,-99.99,FreeWX-Wi 1.01,2013-09-02 17:59:00,
2013-09-02 11:09:00,72.0,59.9,29.85,NNW,348,3.0,5.8,66,0.00,,,-99.99,FreeWX-Wi 1.01,2013-09-02 18:09:00,
2013-09-02 11:19:00,72.9,59.5,29.85,NNW,340,3.0,5.8,63,0.00,,,-99.99,FreeWX-Wi 1.01,2013-09-02 18:19:00,
2013-09-02 11:29:00,73.9,59.5,29.85,NNW,328,3.0,5.8,61,0.00,,,-99.99,FreeWX-Wi 1.01,2013-09-02 18:29:00,
2013-09-02 11:39:00,74.7,57.9,29.85,NNW,337,3.0,8.7,56,0.00,,,-99.99,FreeWX-Wi 1.01,2013-09-02 18:39:00,
2013-09-02 11:49:00,74.8,59.0,29.85,North,350,3.0,6.3,58,0.00,,,-99.99,FreeWX-Wi 1.01,2013-09-02 18:49:00,
2013-09-02 11:59:00,75.4,57.6,29.85,North,356,3.0,8.1,54,0.00,,,-99.99,FreeWX-Wi 1.01,2013-09-02 18:59:00,
2013-09-02 12:09:00,75.4,57.6,29.82,NNW,343,3.0,9.2,54,0.00,,,-99.99,FreeWX-Wi 1.01,2013-09-02 19:09:00,
2013-09-02 12:19:00,75.6,57.7,29.82,NNW,337,3.0,6.3,54,0.00,,,-99.99,FreeWX-Wi 1.01,2013-09-02 19:19:00,
2013-09-02 12:29:00,76.1,57.2,29.82,NW,321,3.0,6.3,52,0.00,,,-99.99,FreeWX-Wi 1.01,2013-09-02 19:29:00,
2013-09-02 12:39:00,76.5,57.6,29.82,NW,323,3.0,8.7,52,0.00,,,-99.99,FreeWX-Wi 1.01,2013-09-02 19:39:00,
2013-09-02 12:49:00,76.6,57.2,29.82,NW,325,3.0,8.7,51,0.00,,,-99.99,FreeWX-Wi 1.01,2013-09-02 19:49:00,
2013-09-02 12:59:00,76.5,56.5,29.82,NNW,329,4.0,10.5,50,0.00,,,-99.99,FreeWX-Wi 1.01,2013-09-02 19:59:00,
2013-09-02 13:09:00,75.9,57.0,29.82,NNW,327,4.0,11.0,52,0.00,,,-99.99,FreeWX-Wi 1.01,2013-09-02 20:09:00,
2013-09-02 13:19:00,76.1,56.7,29.82,NNW,329,4.0,10.5,51,0.00,,,-99.99,FreeWX-Wi 1.01,2013-09-02 20:19:00,
2013-09-02 13:29:00,75.9,56.5,29.82,NNW,333,5.0,10.5,51,0.00,,,-99.99,FreeWX-Wi 1.01,2013-09-02 20:29:00,
2013-09-02 13:50:00,75.0,58.3,29.82,NNW,329,5.0,10.1,56,0.00,,,-99.99,FreeWX-Wi 1.01,2013-09-02 20:50:00,
2013-09-02 14:00:00,75.4,57.6,29.82,NW,323,5.0,10.1,54,0.00,,,-99.99,FreeWX-Wi 1.01,2013-09-02 21:00:00,
2013-09-02 14:10:00,75.9,57.6,29.82,NW,325,5.0,10.1,53,0.00,,,-99.99,FreeWX-Wi 1.01,2013-09-02 21:10:00,
2013-09-02 14:20:00,76.1,57.7,29.82,NNW,328,5.0,15.0,53,0.00,,,-99.99,FreeWX-Wi 1.01,2013-09-02 21:20:00,
2013-09-02 14:30:00,75.9,57.0,29.82,NNW,331,5.0,8.7,52,0.00,,,-99.99,FreeWX-Wi 1.01,2013-09-02 21:30:00,
2013-09-02 14:40:00,75.6,57.2,29.79,NNW,334,6.0,10.1,53,0.00,,,-99.99,FreeWX-Wi 1.01,2013-09-02 21:40:00,
2013-09-02 14:50:00,76.5,57.0,29.79,NNW,337,6.0,9.6,51,0.00,,,-99.99,FreeWX-Wi 1.01,2013-09-02 21:50:00,
2013-09-02 15:00:00,76.5,57.0,29.79,NNW,339,5.0,11.4,51,0.00,,,-99.99,FreeWX-Wi 1.01,2013-09-02 22:00:00,
2013-09-02 15:10:00,76.1,57.2,29.79,NNW,338,5.0,9.6,52,0.00,,,-99.99,FreeWX-Wi 1.01,2013-09-02 22:10:00,
2013-09-02 15:20:00,75.9,57.0,29.79,NNW,335,5.0,11.9,52,0.00,,,-99.99,FreeWX-Wi 1.01,2013-09-02 22:20:00,
2013-09-02 15:30:00,75.4,57.6,29.79,NNW,340,5.0,10.1,54,0.00,,,-99.99,FreeWX-Wi 1.01,2013-09-02 22:30:00,
2013-09-02 15:40:00,75.4,57.0,29.79,NNW,345,5.0,11.0,53,0.00,,,-99.99,FreeWX-Wi 1.01,2013-09-02 22:40:00,
2013-09-02 15:50:00,74.8,57.6,29.79,NNW,348,5.0,10.1,55,0.00,,,-99.99,FreeWX-Wi 1.01,2013-09-02 22:50:00,
2013-09-02 16:00:00,74.7,57.4,29.79,NNW,342,5.0,12.8,55,0.00,,,-99.99,FreeWX-Wi 1.01,2013-09-02 23:00:00,
2013-09-02 16:10:00,73.9,57.7,29.79,NNW,342,5.0,12.8,57,0.00,,,-99.99,FreeWX-Wi 1.01,2013-09-02 23:10:00,
2013-09-02 16:20:00,73.9,57.7,29.76,NNW,341,6.0,11.0,57,0.00,,,-99.99,FreeWX-Wi 1.01,2013-09-02 23:20:00,
2013-09-02 16:30:00,73.6,58.3,29.76,NNW,342,6.0,13.2,59,0.00,,,-99.99,FreeWX-Wi 1.01,2013-09-02 23:30:00,
2013-09-02 16:40:00,73.4,58.1,29.76,NNW,340,6.0,10.1,59,0.00,,,-99.99,FreeWX-Wi 1.01,2013-09-02 23:40:00,
2013-09-02 16:50:00,72.5,58.6,29.76,NNW,340,5.0,11.0,62,0.00,,,-99.99,FreeWX-Wi 1.01,2013-09-02 23:50:00,
2013-09-02 17:00:00,72.9,59.0,29.76,NNW,339,5.0,10.1,62,0.00,,,-99.99,FreeWX-Wi 1.01,2013-09-03 00:00:00,
2013-09-02 17:10:00,73.6,59.4,29.76,NNW,339,5.0,8.1,61,0.00,,,-99.99,FreeWX-Wi 1.01,2013-09-03 00:10:00,
2013-09-02 17:20:00,73.8,59.5,29.76,NNW,333,4.0,9.6,61,0.00,,,-99.99,FreeWX-Wi 1.01,2013-09-03 00:20:00,
2013-09-02 17:30:00,73.8,59.0,29.76,NNW,335,4.0,7.2,60,0.00,,,-99.99,FreeWX-Wi 1.01,2013-09-03 00:30:00,
2013-09-02 17:40:00,73.4,59.2,29.76,NNW,334,4.0,10.1,61,0.00,,,-99.99,FreeWX-Wi 1.01,2013-09-03 00:40:00,
2013-09-02 17:50:00,73.0,59.2,29.76,NNW,344,4.0,8.3,62,0.00,,,-99.99,FreeWX-Wi 1.01,2013-09-03 00:50:00,
2013-09-02 18:00:00,72.5,59.2,29.76,NNW,339,4.0,10.5,63,0.00,,,-99.99,FreeWX-Wi 1.01,2013-09-03 01:00:00,
2013-09-02 18:10:00,72.3,59.4,29.76,NNW,337,4.0,8.3,64,0.00,,,-99.99,FreeWX-Wi 1.01,2013-09-03 01:10:00,
2013-09-02 18:20:00,72.0,59.5,29.76,NNW,337,4.0,7.6,65,0.00,,,-99.99,FreeWX-Wi 1.01,2013-09-03 01:20:00,
2013-09-02 18:30:00,71.8,59.4,29.76,North,351,4.0,10.1,65,0.00,,,-99.99,FreeWX-Wi 1.01,2013-09-03 01:30:00,
2013-09-02 18:40:00,71.1,59.9,29.76,North,2,4.0,7.6,68,0.00,,,-99.99,FreeWX-Wi 1.01,2013-09-03 01:40:00,
2013-09-02 18:50:00,70.5,59.9,29.76,NNE,24,4.0,6.3,69,0.00,,,-99.99,FreeWX-Wi 1.01,2013-09-03 01:50:00,
2013-09-02 19:00:00,70.2,59.9,29.76,NNE,16,4.0,8.3,70,0.00,,,-99.99,FreeWX-Wi 1.01,2013-09-03 02:00:00,
2013-09-02 19:10:00,69.8,59.9,29.76,NNE,21,3.0,7.6,71,0.00,,,-99.99,FreeWX-Wi 1.01,2013-09-03 02:10:00,
2013-09-02 19:20:00,69.6,60.3,29.76,NNE,23,3.0,10.1,72,0.00,,,-99.99,FreeWX-Wi 1.01,2013-09-03 02:20:00,
2013-09-02 19:30:00,68.9,60.6,29.76,NNE,24,3.0,7.6,75,0.00,,,-99.99,FreeWX-Wi 1.01,2013-09-03 02:30:00,
2013-09-02 19:40:00,68.0,60.8,29.76,NNE,28,3.0,6.7,78,0.00,,,-99.99,FreeWX-Wi 1.01,2013-09-03 02:40:00,
2013-09-02 19:50:00,67.6,61.5,29.76,NE,38,2.0,6.3,81,0.00,,,-99.99,FreeWX-Wi 1.01,2013-09-03 02:50:00,
2013-09-02 20:00:00,67.5,61.7,29.76,NE,37,2.0,6.7,82,0.00,,,-99.99,FreeWX-Wi 1.01,2013-09-03 03:00:00,
2013-09-02 20:10:00,67.1,61.7,29.76,NE,46,2.0,6.3,83,0.00,,,-99.99,FreeWX-Wi 1.01,2013-09-03 03:10:00,
2013-09-02 20:20:00,66.9,61.9,29.79,NE,45,2.0,7.6,84,0.00,,,-99.99,FreeWX-Wi 1.01,2013-09-03 03:20:00,
2013-09-02 20:30:00,66.9,61.9,29.79,NE,50,2.0,4.9,84,0.00,,,-99.99,FreeWX-Wi 1.01,2013-09-03 03:30:00,
2013-09-02 20:40:00,66.6,61.5,29.79,NE,52,2.0,6.3,84,0.00,,,-99.99,FreeWX-Wi 1.01,2013-09-03 03:40:00,
2013-09-02 20:50:00,66.2,61.2,29.79,NE,51,2.0,7.6,84,0.00,,,-99.99,FreeWX-Wi 1.01,2013-09-03 03:50:00,
2013-09-02 21:00:00,65.8,61.2,29.79,NE,43,3.0,6.3,85,0.00,,,-99.99,FreeWX-Wi 1.01,2013-09-03 04:00:00,
2013-09-02 21:10:00,65.3,61.3,29.79,NNE,15,2.0,5.8,87,0.00,,,-99.99,FreeWX-Wi 1.01,2013-09-03 04:10:00,
2013-09-02 21:20:00,65.1,61.5,29.79,NNW,340,2.0,6.3,88,0.00,,,-99.99,FreeWX-Wi 1.01,2013-09-03 04:20:00,
2013-09-02 21:30:00,64.8,61.5,29.79,NNW,328,2.0,6.3,89,0.00,,,-99.99,FreeWX-Wi 1.01,2013-09-03 04:30:00,
2013-09-02 21:40:00,64.6,61.5,29.79,NW,321,2.0,6.3,90,0.00,,,-99.99,FreeWX-Wi 1.01,2013-09-03 04:40:00,
2013-09-02 21:50:00,64.6,61.5,29.79,NW,322,2.0,6.3,90,0.00,,,-99.99,FreeWX-Wi 1.01,2013-09-03 04:50:00,
2013-09-02 22:00:00,64.4,61.3,29.79,NW,322,2.0,4.0,90,0.00,,,-99.99,FreeWX-Wi 1.01,2013-09-03 05:00:00,
2013-09-02 22:10:00,64.4,61.3,29.82,NW,316,1.0,4.0,90,0.00,,,-99.99,FreeWX-Wi 1.01,2013-09-03 05:10:00,
2013-09-02 22:20:00,64.6,61.5,29.82,North,-999,0.0,5.8,90,0.00,,,-99.99,FreeWX-Wi 1.01,2013-09-03 05:20:00,
2013-09-02 22:30:00,64.8,61.7,29.82,North,-999,0.0,5.4,90,0.00,,,-99.99,FreeWX-Wi 1.01,2013-09-03 05:30:00,
2013-09-02 22:40:00,64.8,61.5,29.82,North,-999,0.0,3.6,89,0.00,,,-99.99,FreeWX-Wi 1.01,2013-09-03 05:40:00,
2013-09-02 22:50:00,64.8,61.5,29.82,NNE,16,1.0,5.4,89,0.00,,,-99.99,FreeWX-Wi 1.01,2013-09-03 05:50:00,
2013-09-02 23:00:00,64.8,61.5,29.82,NNE,12,1.0,4.9,89,0.00,,,-99.99,FreeWX-Wi 1.01,2013-09-03 06:00:00,
2013-09-02 23:10:00,64.4,61.2,29.82,North,349,1.0,4.0,89,0.00,,,-99.99,FreeWX-Wi 1.01,2013-09-03 06:10:00,
2013-09-02 23:20:00,64.2,61.2,29.82,NNW,346,1.0,4.9,90,0.00,,,-99.99,FreeWX-Wi 1.01,2013-09-03 06:20:00,
2013-09-02 23:30:00,64.0,61.0,29.82,NNW,336,1.0,6.3,90,0.00,,,-99.99,FreeWX-Wi 1.01,2013-09-03 06:30:00,
2013-09-02 23:40:00,63.9,60.8,29.82,NNW,336,1.0,3.6,90,0.00,,,-99.99,FreeWX-Wi 1.01,2013-09-03 06:40:00,
2013-09-02 23:50:00,63.7,60.6,29.82,NNW,332,1.0,5.8,90,0.00,,,-99.99,FreeWX-Wi 1.01,2013-09-03 06:50:00,